Newcastle Nobbys Observation History
Time Wind Speed Temp Pressure Rel. Hum Rain
29/06:30am SSW 10-14 kts 15.4°c n/a 88% 0.0mm
29/06:00am SW 7-13 kts 15.0°c n/a 86% 0.0mm
29/05:30am SW 7-12 kts 15.3°c n/a 85% 0.0mm
29/05:00am SW 10-15 kts 15.4°c n/a 87% 0.0mm
29/04:30am SW 8-14 kts 15.8°c n/a 87% 0.0mm
29/04:00am SW 6-10 kts 16.0°c n/a 84% 0.0mm
29/03:30am SSW 9-12 kts 17.1°c n/a 71% 0.0mm
29/03:00am S 12-14 kts 16.8°c n/a 79% 0.0mm
29/02:30am S 13-16 kts 16.7°c n/a 86% 0.0mm
29/02:00am WNW 6-7 kts 15.7°c n/a 81% 0.0mm
29/01:30am SSW 10-13 kts 17.1°c n/a 70% 0.0mm
29/01:00am SSW 12-18 kts 16.5°c n/a 82% 0.0mm
29/12:30am WSW 4-6 kts 16.3°c n/a 79% 0.0mm
29/12:00am SW 6-13 kts 16.8°c n/a 79% 0.0mm
Time Wind Speed Temp Pressure Rel. Hum Rain
28/11:30pm WSW 6-12 kts 16.6°c n/a 82% 0.0mm
28/11:00pm SW 5-8 kts 17.1°c n/a 79% 0.0mm
28/10:30pm WSW 5-6 kts 16.5°c n/a 83% 0.0mm
28/10:00pm W 3-4 kts 16.4°c n/a 83% 0.0mm
28/09:30pm W 4-5 kts 16.1°c n/a 85% 0.0mm
28/09:00pm W 4-5 kts 16.3°c n/a 82% 0.0mm
28/08:30pm W 4-6 kts 16.5°c n/a 81% 0.0mm
28/08:00pm W 4-5 kts 17.1°c n/a 77% 0.0mm
28/07:30pm W 1-2 kts 18.2°c n/a 73% 0.0mm
28/07:00pm WSW 2-3 kts 18.2°c n/a 71% 0.0mm
28/06:30pm S 3-4 kts 18.9°c n/a 68% 0.0mm
28/06:00pm S 5-7 kts 18.7°c n/a 70% 0.0mm
28/05:30pm S 8-9 kts 18.8°c n/a 70% 0.0mm
28/05:00pm S 6-7 kts 18.7°c n/a 69% 0.0mm
28/04:30pm S 6-7 kts 19.1°c n/a 67% 0.0mm
28/04:00pm S 5-6 kts 19.7°c n/a 66% 0.0mm
28/03:30pm S 6-7 kts 19.4°c n/a 65% 0.0mm
28/03:00pm S 8-9 kts 19.6°c n/a 67% 0.0mm
28/02:30pm S 8-9 kts 19.8°c n/a 65% 0.0mm
28/02:00pm SSE 4-6 kts 19.6°c n/a 74% 0.0mm
28/01:30pm SSE 6-8 kts 18.9°c n/a 72% 0.0mm
28/01:00pm SSE 5-7 kts 19.7°c n/a 67% 0.0mm
28/12:30pm WNW 5-7 kts 21.1°c n/a 66% 0.0mm
28/12:00pm WNW 8-10 kts 19.8°c n/a 72% 0.0mm
28/11:30am NNW 9-12 kts 19.1°c n/a 77% 0.0mm
28/11:00am NW 9-12 kts 18.4°c n/a 79% 0.0mm
28/10:30am NW 9-12 kts 17.5°c n/a 83% 0.0mm
28/10:00am NW 10-14 kts 16.2°c n/a 87% 0.0mm
28/09:30am NW 11-14 kts 15.4°c n/a 92% 0.0mm
28/09:00am NW 10-14 kts 15.0°c n/a 99% 0.0mm
28/08:30am NW 8-10 kts 14.0°c n/a 100% 0.0mm
28/08:00am WNW 7-8 kts 13.1°c n/a 100% 0.0mm
28/07:30am WNW 5-7 kts 12.4°c n/a 100% 0.0mm
28/07:00am NW 4-6 kts 12.2°c n/a 100% 0.0mm
28/06:30am NW 5-7 kts 12.3°c n/a 100% 0.0mm
28/06:00am WNW 5-6 kts 12.6°c n/a 100% 0.0mm
28/05:30am WNW 5-6 kts 12.5°c n/a 100% 0.0mm
28/05:00am WNW 5-7 kts 12.6°c n/a 100% 0.0mm
28/04:30am WNW 4-6 kts 12.9°c n/a 100% 0.0mm
28/04:00am NW 5-6 kts 13.1°c n/a 100% 0.0mm
28/03:30am WNW 4-5 kts 13.6°c n/a 100% 0.0mm
28/03:00am NW 4-5 kts 13.8°c n/a 100% 0.0mm
28/02:30am WNW 5-7 kts 13.8°c n/a 100% 0.0mm
28/02:00am WNW 5-6 kts 13.8°c n/a 99% 0.0mm
28/01:30am W 5-6 kts 13.9°c n/a 99% 0.0mm
28/01:00am NW 4-5 kts 13.9°c n/a 99% 0.0mm
28/12:30am WNW 5-6 kts 13.9°c n/a 98% 0.0mm
28/12:00am NW 3-5 kts 14.1°c n/a 97% 0.0mm
Time Wind Speed Temp Pressure Rel. Hum Rain
27/11:30pm WNW 4-5 kts 14.3°c n/a 97% 0.0mm
27/11:00pm W 4-5 kts 14.6°c n/a 96% 0.0mm
27/10:30pm WNW 3-4 kts 14.9°c n/a 95% 0.0mm
27/10:00pm NW 2-3 kts 15.4°c n/a 93% 0.0mm
27/09:30pm W 2-4 kts 15.6°c n/a 90% 0.0mm
27/09:00pm CALM 0 kts 16.3°c n/a 88% 0.0mm
27/08:30pm SW 4-5 kts 16.9°c n/a 86% 0.0mm
27/08:00pm WSW 5-8 kts 16.3°c n/a 87% 0.0mm
27/07:30pm W 4-5 kts 16.6°c n/a 86% 0.0mm
27/07:00pm WSW 3-4 kts 17.4°c n/a 82% 0.0mm
27/06:30pm SSE 5-8 kts 17.9°c n/a 79% 0.0mm
27/06:00pm S 7-10 kts 17.9°c n/a 78% 0.0mm
27/05:30pm S 9-11 kts 17.9°c n/a 79% 0.0mm
27/05:00pm S 9-11 kts 17.9°c n/a 79% 0.0mm
27/04:30pm S 10-12 kts 17.9°c n/a 82% 0.0mm
27/04:00pm S 10-13 kts 17.8°c n/a 82% 0.0mm
27/03:30pm S 8-10 kts 17.9°c n/a 81% 0.0mm
27/03:00pm S 8-10 kts 18.0°c n/a 79% 0.0mm
27/02:30pm SSW 7-9 kts 18.5°c n/a 78% 0.0mm
27/02:00pm S 9-10 kts 18.0°c n/a 79% 0.0mm
27/01:30pm S 9-13 kts 18.1°c n/a 79% 0.0mm
27/01:00pm SSW 10-13 kts 18.1°c n/a 78% 0.0mm
27/12:30pm SSW 8-12 kts 18.3°c n/a 79% 0.0mm
27/12:00pm SSW 9-13 kts 17.8°c n/a 81% 0.0mm
27/11:30am SW 7-11 kts 17.9°c n/a 83% 0.0mm
27/11:00am SSW 8-13 kts 17.1°c n/a 82% 0.0mm
27/10:30am SW 8-12 kts 18.2°c n/a 80% 0.0mm
27/10:00am SW 7-10 kts 17.0°c n/a 82% 0.0mm
27/09:30am SW 7-11 kts 16.3°c n/a 84% 0.0mm
27/09:00am W 5-7 kts 15.6°c n/a 89% 0.0mm
27/08:30am W 7-9 kts 14.3°c n/a 92% 0.0mm
27/08:00am NW 5-7 kts 13.5°c n/a 91% 0.0mm
27/07:30am WNW 6-7 kts 13.8°c n/a 90% 0.0mm
27/07:00am WNW 4-6 kts 13.8°c n/a 90% 0.0mm
27/06:30am WNW 7-8 kts 14.1°c n/a 88% 0.0mm
27/06:00am W 4-6 kts 14.4°c n/a 86% 0.0mm
27/05:30am SW 7-11 kts 14.9°c n/a 86% 0.0mm
27/05:00am SW 8-12 kts 14.8°c n/a 88% 0.0mm
27/04:30am WSW 5-8 kts 14.5°c n/a 88% 0.0mm
27/04:00am WSW 7-9 kts 14.7°c n/a 87% 0.0mm
27/03:30am SW 6-11 kts 15.0°c n/a 87% 0.0mm
27/03:00am WSW 6-9 kts 15.0°c n/a 87% 0.0mm
27/02:30am WSW 7-11 kts 15.2°c n/a 84% 0.0mm
27/02:00am SW 7-13 kts 15.3°c n/a 83% 0.0mm
27/01:30am SW 7-11 kts 15.9°c n/a 83% 0.0mm
27/01:00am WSW 7-9 kts 15.4°c n/a 82% 0.0mm
27/12:30am WSW 7-11 kts 15.9°c n/a 78% 0.0mm
27/12:00am S 12-14 kts 18.3°c n/a 67% 0.0mm